Weather in Lutuhyne

Ukraine / Luhansk Region     48°24′06″N   39°12′56″E
temp.,
°C
wind,
m/s
gust,
m/s
humid.,
%
clouds,
%
prec.,
mm/h
press.,
hPa
HPBL,
m
18 april, sun
sun1800:00+10w116299 0.0 102121
03:00+9nne116399 0.0 102022
06:00+9ese2267100 0.0 102078
09:00+11se3458100 0.0 1019558
12:00+13ese3347100 0.0 10191869
15:00+13e224799 0.0 10181378
18:00+14ene234796 0.0 1017693
21:00+11s2358100 0.0 101765
19 april, mon
mon1900:00+10sw227299 0.0 101753
03:00+9sw117383 0.0 101715
06:00+8sw227898 0.0 101616
09:00+13sw1158100 0.0 1016506
12:00+16ese2140100 0.0 10151948
15:00+17e223684 0.0 10142102
18:00+16nw0245100 0.0 1014455
21:00+13ne335298 0.0 101457
20 april, tue
tue2000:00+11e2262100 0.0 101319
03:00+11e3874100 0.0 1011227
06:00+11ese41088100 0.5 1010582
09:00+11e71391100 3.3 1007615
12:00+12ese101592100 7.9 1004684
15:00+15se8158497 11.1 1000869
18:00+14ssw1015780 0.3 1001933
21:00+10ssw10168324 0.3 1002937
21 april, wed
wed2100:00+10ssw91680100 0.0 10031403
03:00+9ssw81391100 0.3 1004993
06:00+9wsw71282100 0.3 10081020
09:00+10w6117098 0.4 10131236
12:00+14wsw6853100 0.2 10141899
15:00+14wsw6756100 0.8 10151522
18:00+13wsw5758100 0.4 1017675
21:00+10wsw227293 0.4 101925
22 april, thu
thu2200:00+8w22806 0.0 102026
03:00+7sw22795 0.0 102121
06:00+7ssw118059 0.0 102210
09:00+11ssw126280 0.0 1022442
12:00+15s4455100 0.1 10221181
15:00+15ssw4556100 1.6 10221480
18:00+13s2372100 1.3 1022245
21:00+10s2284100 2.1 102220